星链-5008 (STARLINK-5008 )

导读 | 星芒AI

STARLINK-5008 是 SpaceX Starlink 项目中的一颗低轨通信卫星,属于第 13 批组网发射的“星链”卫星之一。该卫星运行在约 550 公里的近地轨道,旨在为全球提供高速互联网服务。它采用先进的推进系统和激光通信技术,以提高网络稳定性和减少延迟。STARLINK-5008 与其他星链卫星协同工作,支持偏远地区和高需求区域的宽带接入,推动全球互联网覆盖的普及与优化。

基本信息
目录编号:
53927
目录名称:
STARLINK-5008
国际标识:
2022-119AT
轨道中心:
EARTH
卫星名称:
星链-5008
卫星全名:
星链-5008 (STARLINK-5008 )
卫星状态:
已陨落 最后检测时间 2025-11-17
发射日期:
2022-09-24 UTC
国别 :
美国 (US)
星等 :
--
轨道信息
数据来源 国际轨道数据
星历时间: 2025-11-17T20:35:56+0800
轨道信息已过期33天
半长轴: 6523.814km
偏心率: 0.0003691
轨道倾角: 53.170°
近地点辐角 166.756°
升交点赤经 339.587°
平近点角 193.359°
近地点: 143.271km
远地点: 148.087km
周期: 87.400分钟
每日圈数: 16.475948
详细信息
固有亮度:
5
最大亮度:
2.5
卫星平台:
Starlink v1.5
覆盖范围:
全球
运营商:
太空探索技术公司
运营商所在国:
美国
制造商(研发单位):
太空探索技术公司
制造商所在国:
美国
使用方式:
暂无
卫星简介
星链(Starlink)计划是由太空探索技术公司(SpaceX)提出的一个巨型低轨卫星互联网星座项目,计划在2019年至2024年间在太空搭建由约1.2万颗卫星组成的“星链”网络,其中1584颗将部署在地球上空550千米处的近地轨道,并从2020年开始工作。该卫星仍在工作。